User: anonymous   Login
Location: Zagreb
(45.8000°N, 16.0000°E)
Time: 00:48:10
(UTC+01:00)
Language:

Tiros 1 despin weight - Orbit

View from above orbital plane
View from above orbital plane
View from above satellite
View from above satellite

Ground track
Ground track

The orbit data is extracted from the following two-line orbital elements,

1   115U 60002D   20025.32882786 -.00000093  00000-0  16124-4 0  9999
2   115  48.1656 247.2440 0034870 333.4935  26.4194 14.83528584191571
Epoch (UTC): 25 January 2020 07:53:30
Eccentricity: 0.0034870
inclination: 48.1656°
perigee height: 594 km
apogee height: 642 km
right ascension of ascending node: 247.2440°
argument of perigee: 333.4935°
revolutions per day: 14.83528584
mean anomaly at epoch: 26.4194°
orbit number at epoch: 19157

The dashed part of the orbit path shows where the satellite is in the earth's shadow,  

DLR